Vertical_Velocity
-4 -1 5 14 6 -6 -15 -14 -11 -13 -17 -24 -27 -25 -20 -14 -15 -15 -13 -8 -8 -8 -8 -6 -3 3 7 6 3 2 2 2 2 3 4 4 2 2 3 5 7 3 -7 -21 -11 -4 0 0 1 1 2 3 3 3 2 1 1 0 -0 -0 -1 -1 -1 -1 -1 -1 -1 -1 -1
6 6 11 20 12 -1 -10 -10 -7 -5 -4 -4 -7 -9 -10 -8 -10 -14 -17 -17 -12 -9 -6 -4 -0 2 2 -1 -1 0 1 1 2 3 3 2 2 2 4 5 6 3 -1 -5 -2 -1 -0 0 2 2 2 2 3 3 1 -0 1 0 -0 -1 -1 -1 -1 -1 -1 -1 -1 -0 -0
9 7 8 10 7 -1 -7 -6 -4 -3 -1 1 1 -1 -3 -3 -1 -7 -17 -30 -20 -12 -8 -6 -3 -2 -1 -2 0 2 4 4 4 4 4 3 2 2 3 3 2 2 2 2 1 1 2 3 3 3 3 2 3 2 1 -0 0 0 0 -1 -1 -1 -1 -1 -1 -1 -1 -0 -0
7 4 2 0 1 1 1 1 0 -1 -1 -0 0 1 0 -1 0 -5 -17 -36 -29 -19 -11 -9 -6 -4 -1 1 3 4 6 6 4 2 1 2 -1 -7 -11 -7 -0 4 5 3 3 3 3 4 4 4 3 3 3 2 1 -0 -0 0 -0 -1 -1 -1 -1 -1 -1 -1 -1 -0 -0
1 0 -1 -3 -2 -1 0 2 3 3 2 0 1 2 3 2 0 -4 -10 -18 -19 -14 -7 -3 -2 -2 -1 0 3 4 5 6 4 2 2 2 -5 -9 -9 -2 2 4 3 3 3 3 3 3 3 3 3 3 2 2 1 0 0 0 -0 -1 -1 -1 -1 -1 -1 -1 -0 0 0
-2 -2 -3 -3 -3 -2 -1 1 2 4 4 2 2 2 3 5 3 -2 -8 -15 -14 -9 -3 0 -0 -1 -1 -2 -1 -1 -1 -0 4 6 3 -5 -11 -10 -6 0 3 3 2 2 2 2 2 2 2 2 2 2 2 1 0 1 1 0 -0 -1 -2 -2 -1 -1 -1 -0 0 1 1
-1 -2 -2 -2 -1 -1 0 2 2 3 3 3 1 1 2 4 6 5 0 -7 -14 -15 -12 -6 -1 -1 -4 -7 -6 -3 0 2 -2 -8 -13 -12 -9 -6 -2 1 2 2 1 1 1 1 1 1 2 1 1 1 0 -0 -0 0 1 1 0 -1 -2 -2 -1 -1 -1 -0 1 2 2
-0 -0 -0 -0 0 1 2 3 4 4 3 2 0 -1 0 2 5 7 9 7 -2 -10 -14 -13 -9 -6 -5 -6 -8 -10 -11 -13 -16 -15 -11 -6 -4 -3 -1 1 1 1 0 1 1 2 1 1 1 1 0 -0 -0 -1 -1 -1 0 1 0 -1 -1 -1 -1 -0 -0 0 1 2 2
1 1 1 1 1 2 3 3 4 5 4 3 1 1 1 1 3 5 8 10 9 5 0 -5 -6 -6 -5 -5 -7 -9 -10 -10 -8 -6 -3 -3 -2 -1 1 1 1 1 0 1 2 2 2 2 1 1 0 -0 -1 -1 -2 -1 -0 0 -0 -0 -0 -0 -0 0 1 1 2 2 2
0 1 1 1 2 2 2 2 3 4 4 3 2 2 2 2 2 3 5 8 10 9 7 5 3 2 0 -0 -1 -2 -2 -2 -2 -2 -3 -4 -2 0 1 2 2 1 1 0 1 1 2 2 2 1 0 -0 -1 -2 -2 -2 -0 -0 -0 -0 1 1 1 0 1 1 2 2 1
1 0 0 0 1 1 1 1 2 3 3 2 2 2 2 1 1 2 3 5 6 6 7 6 5 4 4 4 4 4 4 3 -0 -4 -6 -6 -4 -2 0 1 1 2 1 0 0 1 1 1 1 1 -0 -1 -2 -2 -2 -2 -1 -0 -0 0 1 2 2 1 1 1 1 1 -0
1 1 1 1 0 -0 -0 -1 -0 -0 0 0 1 2 2 2 1 1 2 2 2 3 4 4 3 3 3 3 5 6 8 8 5 1 -4 -7 -7 -5 -2 -0 1 1 1 1 0 0 1 1 0 -0 -1 -2 -2 -1 -1 -1 -0 0 0 0 1 2 2 1 1 0 0 -0 -1
-1 -0 -0 0 -0 -0 -1 -1 -2 -2 -2 -2 -1 0 1 1 1 1 0 1 0 1 2 2 2 2 2 2 4 6 9 11 11 10 6 -0 -5 -6 -4 -1 -0 0 0 1 0 0 0 -0 -1 -2 -2 -2 -2 -1 -1 -0 0 1 1 1 1 1 1 1 0 0 -0 -1 -2
-1 -1 -1 -1 -1 -1 -1 -2 -2 -2 -2 -3 -2 -2 -1 -0 -0 -0 -0 0 0 -0 0 1 1 1 1 1 2 3 5 6 9 11 12 9 2 -3 -4 -3 -2 -1 -1 -1 -1 -1 -1 -2 -2 -2 -2 -2 -1 -1 -0 1 2 2 2 1 1 1 1 1 0 -0 -1 -1 -2
-0 0 -0 -0 -1 -1 -1 -2 -2 -2 -2 -2 -2 -2 -1 -1 -1 -1 -0 0 0 0 0 1 1 1 1 1 1 1 1 1 3 6 10 12 8 2 -2 -3 -3 -2 -2 -3 -3 -3 -2 -2 -2 -2 -2 -1 -1 -0 0 1 2 2 2 2 1 1 1 0 0 -0 -1 -1 -1
-0 -0 0 0 0 0 -0 -1 -1 -2 -2 -2 -1 -1 -0 0 0 0 1 1 1 1 1 2 2 1 1 1 1 0 -0 -1 -1 2 6 10 9 5 0 -3 -3 -3 -3 -2 -2 -1 -1 -2 -2 -2 -1 -1 -0 0 1 2 2 2 2 2 1 1 0 0 -0 -0 -1 -1 -1
-1 -1 -0 -0 0 1 1 0 -0 -1 -1 -1 -0 1 1 2 2 2 2 2 2 2 2 2 1 1 1 1 1 0 -0 -1 -1 1 5 10 9 6 2 -1 -1 -1 -1 -1 -0 -0 -0 -1 -1 -1 -1 -0 0 1 1 2 2 2 2 1 1 1 0 0 -0 -1 -1 -1 -1
-0 -1 -1 -0 0 1 1 1 1 1 0 0 1 2 2 3 3 3 3 3 2 2 1 1 1 1 1 1 1 1 0 0 1 4 6 9 8 6 3 1 1 1 0 0 0 0 0 0 -0 -0 -0 0 0 1 1 2 2 1 1 1 1 0 0 -0 -1 -1 -1 -1 -1
1 0 -0 -0 0 1 1 1 1 1 1 1 1 2 3 3 3 2 2 2 1 1 1 1 1 1 1 1 1 1 2 3 5 7 8 9 6 4 3 2 1 1 1 0 0 0 0 0 0 0 0 0 0 1 1 1 1 1 1 1 0 0 0 -0 -0 -1 -1 -1 -1
2 2 1 1 0 0 0 0 1 1 1 1 1 2 2 2 2 2 2 2 2 2 2 2 1 1 1 2 2 3 4 5 7 9 9 8 6 4 2 1 1 1 1 0 -0 -0 -0 0 0 0 0 0 0 0 0 0 0 0 0 0 0 0 0 -0 -0 -1 -1 -1 -1
3 4 3 2 1 -0 -0 -0 -0 -0 0 0 1 1 1 2 2 2 3 3 2 2 2 2 2 2 2 3 4 4 5 6 8 9 9 7 5 3 2 1 1 1 0 -0 -1 -1 -1 -1 -0 -0 -0 0 0 0 0 0 0 0 0 0 0 0 0 -0 -0 -1 -1 -1 -1
4 4 4 2 1 0 -0 -1 -1 -1 -1 -0 0 1 1 2 2 3 3 3 2 2 2 2 2 3 3 4 5 5 5 6 7 8 7 6 4 3 1 1 1 0 -0 -1 -1 -1 -1 -1 -1 -1 -1 -0 -0 0 0 0 0 0 0 0 0 0 -0 -0 -1 -1 -1 -1 -1
3 3 3 2 1 0 -0 -0 -1 -1 -1 -1 0 1 1 2 3 3 3 3 2 2 2 2 3 3 4 4 5 5 6 6 7 7 6 4 3 2 1 0 0 -0 -1 -1 -1 -1 -1 -1 -1 -1 -1 -0 -0 0 0 0 0 0 -0 -0 -0 -0 -0 -1 -0 -1 -1 -1 -1
1 2 2 3 2 1 0 -0 -0 -1 -1 -1 0 1 2 3 3 3 3 3 3 3 3 3 4 4 5 5 5 5 6 6 6 5 4 3 2 1 0 -0 -1 -1 -1 -1 -1 -0 -0 -0 -0 -1 -0 -0 0 0 1 1 1 0 -0 -1 -1 -1 -1 -0 -0 -0 -0 -0 -0
0 1 2 3 2 1 1 0 -0 -1 -1 -0 0 1 2 3 3 3 3 3 3 3 3 4 4 4 5 5 5 5 5 5 5 4 3 2 1 1 0 -1 -1 -1 -1 -1 -1 -1 -0 -0 -0 -1 -0 -0 -0 0 0 1 0 0 -0 -1 -1 -1 -1 -0 -0 -0 -0 -0 -1
-0 0 1 3 3 2 1 0 -0 -0 -0 -0 -0 0 1 2 3 3 3 4 3 3 3 4 4 4 4 4 5 5 5 4 4 3 3 2 1 1 -0 -1 -1 -1 -1 -1 -1 -1 -1 -1 -1 -1 -1 -1 -1 -1 -1 -0 -0 -0 -1 -1 -1 -1 -1 -0 -0 -1 -1 -1 -1
0 0 1 2 3 3 2 1 0 -0 -0 -1 -1 -0 1 2 2 3 3 4 4 3 4 4 4 4 4 4 4 4 3 3 3 3 2 1 1 0 -0 -1 -1 -1 -1 -1 -1 -1 -1 -1 -1 -1 -1 -1 -1 -1 -1 -1 -1 -1 -1 -1 -1 -1 -1 -0 -0 -1 -1 -1 -1
0 0 1 2 2 3 3 2 1 0 -0 -0 -0 0 1 1 2 2 3 4 3 3 3 4 4 4 4 3 3 2 2 2 2 2 1 1 0 -0 -1 -1 -1 -1 -1 -1 -1 -1 -0 -0 -0 -0 -0 -1 -1 -1 -1 -1 -1 -1 -1 -1 -1 -1 -1 -1 -1 -1 -1 -1 -1
-0 0 0 1 2 3 3 2 1 1 1 1 1 1 1 1 1 2 2 3 3 3 3 3 4 4 3 2 2 1 1 1 1 1 1 0 -0 -1 -1 -1 -1 -1 -1 -1 -1 -0 -0 0 0 0 0 0 -1 -1 -1 -1 -1 -1 -1 -1 -1 -1 -1 -1 -1 -1 -1 -1 -1
-0 -0 -0 0 1 2 3 3 2 2 2 2 1 1 1 0 1 1 1 2 2 3 3 4 4 3 2 1 1 1 1 1 1 0 0 -0 -0 -1 -1 -1 -1 -1 -1 -1 -1 -0 0 0 0 0 0 -0 -1 -1 -1 -1 -1 -1 -1 -1 -1 -1 -2 -2 -2 -2 -2 -2 -1
-1 -0 -0 -0 0 2 3 4 4 3 2 2 1 1 1 0 0 0 1 2 3 4 4 4 3 3 2 1 1 1 0 0 -0 -0 -0 0 -0 -0 -0 -1 -0 -1 -1 -1 -1 -0 0 1 0 0 -0 -1 -1 -1 -1 -1 -1 -2 -2 -2 -2 -2 -2 -2 -2 -2 -2 -2 -1
-1 -1 -1 -1 -0 1 4 5 4 3 2 1 1 1 1 0 0 1 1 2 3 3 3 3 3 2 2 1 1 1 0 0 -0 0 0 0 0 0 -0 0 0 -0 -1 -1 -1 -0 0 1 0 0 -0 -1 -1 -1 -1 -1 -2 -2 -2 -2 -2 -2 -2 -2 -2 -2 -2 -1 -1
-2 -2 -2 -2 -1 1 3 4 4 3 2 1 1 1 1 1 1 1 1 1 2 2 3 3 3 2 2 1 1 1 0 -0 0 0 1 1 0 0 0 1 1 0 -1 -1 -1 -0 0 1 0 -0 -1 -1 -1 -1 -2 -2 -2 -2 -2 -2 -2 -2 -2 -2 -2 -2 -2 -1 -1
-3 -3 -3 -2 -1 -0 1 3 3 3 2 1 1 1 1 1 1 1 0 1 1 2 3 3 3 3 2 2 1 1 0 -0 0 0 0 0 -0 -0 0 1 1 -0 -1 -2 -1 -1 0 0 0 -0 -1 -2 -1 -2 -2 -2 -2 -2 -2 -2 -2 -2 -2 -2 -2 -2 -2 -1 -1
-3 -3 -3 -2 -2 -1 -0 1 2 2 2 1 1 1 1 1 1 1 1 1 2 2 2 2 3 2 2 1 1 0 0 0 0 0 0 -1 -1 -1 -0 1 1 -0 -1 -2 -1 -1 -0 0 -0 -1 -1 -1 -1 -2 -2 -3 -3 -3 -3 -3 -2 -2 -2 -2 -2 -2 -2 -2 -1
-2 -3 -3 -3 -2 -1 -1 -1 0 0 0 0 1 1 1 1 2 2 2 2 2 2 2 2 2 2 1 1 0 1 1 1 1 1 -0 -1 -1 -1 -0 1 1 -0 -2 -2 -1 -1 -0 -0 -0 -1 -1 -1 -2 -2 -2 -3 -3 -3 -3 -3 -2 -2 -2 -2 -2 -2 -2 -2 -1
-1 -2 -2 -2 -2 -1 -1 -1 -1 -1 -1 -0 1 1 2 2 3 3 3 2 2 2 1 2 2 1 1 1 1 2 2 2 1 0 -1 -1 -1 -1 -0 1 1 -1 -2 -2 -1 -1 -0 0 -0 -1 -1 -1 -2 -2 -3 -3 -3 -3 -2 -2 -2 -2 -2 -2 -2 -2 -2 -2 -1
-1 -1 -2 -2 -2 -1 -1 -1 -2 -2 -2 -1 0 1 2 2 2 2 2 2 2 2 2 2 2 2 2 3 3 2 1 1 0 -0 -1 -1 -1 -1 0 1 0 -1 -2 -2 -1 -1 -0 0 0 -0 -1 -2 -2 -3 -3 -3 -2 -2 -2 -2 -2 -2 -2 -2 -2 -1 -1 -1 -1
-1 -1 -1 -1 -1 -1 -1 -1 -2 -1 -1 -0 0 0 1 0 1 1 2 2 2 2 2 1 2 2 3 3 2 1 0 -0 -0 0 -0 -0 -1 -1 0 1 0 -1 -2 -2 -1 -1 0 1 0 -0 -1 -2 -2 -3 -3 -2 -2 -1 -1 -1 -1 -1 -1 -1 -1 -1 -1 -1 -1
-1 -1 -0 -0 -1 -1 -1 -1 -1 -1 -0 -0 -0 -0 -0 -0 1 2 2 2 2 2 2 1 2 2 3 3 1 0 -0 -1 -0 0 1 0 -0 -1 -0 0 0 -0 -1 -2 -1 -1 -0 0 1 0 -1 -2 -2 -2 -2 -2 -2 -1 -1 -0 -1 -1 -1 -1 -1 -1 -1 -1 -1
-1 -1 -1 -0 0 -0 -0 -1 -0 -0 0 -0 -0 -0 0 0 1 1 1 1 1 1 2 2 2 2 2 2 1 0 -1 -1 -1 0 1 1 0 -1 -1 0 1 -0 -1 -1 -1 -1 -0 0 1 0 -1 -2 -2 -2 -2 -2 -2 -1 -1 -0 -0 -0 -1 -1 -1 -1 -1 -1 -1
Height
1504 1504 1505 1505 1505 1505 1505 1506 1507 1508 1508 1509 1509 1509 1509 1509 1510 1511 1512 1513 1514 1515 1515 1516 1516 1515 1515 1514 1514 1515 1516 1516 1516 1517 1518 1518 1518 1519 1520 1520 1521 1522 1522 1521 1521 1522 1522 1523 1523 1523 1524 1524 1524 1524 1524 1524 1523 1523 1523 1522 1522 1522 1521 1521 1521 1520 1520 1519 1519
1503 1503 1504 1504 1504 1504 1505 1506 1506 1507 1507 1506 1506 1506 1506 1506 1507 1509 1510 1512 1513 1514 1514 1515 1515 1514 1514 1514 1514 1514 1515 1515 1515 1516 1516 1516 1517 1518 1518 1519 1519 1519 1519 1519 1520 1520 1520 1521 1521 1522 1522 1522 1522 1522 1522 1521 1521 1521 1521 1520 1520 1520 1519 1519 1519 1518 1518 1517 1516
1503 1503 1503 1503 1503 1504 1504 1505 1505 1505 1505 1505 1505 1505 1505 1505 1505 1506 1508 1511 1512 1513 1513 1513 1513 1513 1513 1513 1513 1513 1513 1514 1514 1514 1514 1515 1515 1516 1517 1517 1517 1517 1517 1517 1518 1518 1519 1520 1520 1520 1520 1520 1520 1520 1520 1520 1520 1519 1519 1518 1518 1518 1517 1517 1516 1516 1515 1515 1514
1502 1502 1502 1503 1503 1503 1503 1504 1504 1505 1505 1505 1505 1504 1504 1505 1505 1506 1507 1510 1511 1511 1512 1512 1512 1512 1511 1511 1511 1512 1512 1511 1511 1511 1512 1513 1514 1515 1515 1514 1515 1515 1516 1516 1516 1517 1517 1518 1518 1518 1518 1518 1518 1518 1518 1518 1517 1517 1517 1516 1516 1515 1515 1515 1514 1514 1513 1513 1512
1501 1501 1502 1502 1502 1503 1503 1503 1504 1504 1504 1505 1505 1504 1504 1505 1505 1506 1507 1508 1509 1510 1510 1511 1511 1511 1510 1510 1510 1510 1510 1510 1510 1510 1511 1512 1513 1514 1514 1513 1514 1514 1514 1515 1515 1515 1516 1516 1516 1517 1517 1517 1517 1516 1516 1516 1515 1515 1515 1514 1514 1513 1513 1512 1512 1512 1511 1510 1510
1501 1501 1501 1501 1502 1502 1502 1503 1503 1504 1504 1504 1504 1504 1504 1504 1505 1505 1506 1507 1508 1509 1509 1509 1509 1509 1509 1509 1510 1510 1510 1510 1510 1510 1511 1511 1511 1512 1512 1512 1512 1513 1513 1513 1513 1514 1514 1515 1515 1515 1515 1515 1515 1514 1514 1514 1514 1513 1513 1512 1512 1511 1510 1510 1510 1509 1509 1508 1508
1500 1500 1500 1500 1501 1501 1501 1502 1502 1503 1503 1503 1503 1503 1503 1504 1504 1504 1505 1506 1507 1507 1508 1508 1508 1508 1509 1509 1509 1509 1508 1508 1509 1509 1510 1510 1510 1510 1510 1510 1511 1511 1511 1512 1512 1512 1512 1513 1513 1513 1513 1513 1512 1512 1512 1512 1512 1511 1511 1510 1510 1509 1508 1508 1507 1507 1506 1506 1505
1500 1500 1500 1500 1500 1500 1500 1500 1501 1501 1501 1501 1501 1502 1502 1503 1503 1503 1503 1504 1505 1506 1506 1507 1507 1507 1508 1508 1508 1507 1507 1507 1507 1507 1508 1508 1508 1508 1509 1509 1510 1510 1510 1510 1510 1510 1510 1511 1511 1511 1510 1510 1510 1510 1510 1510 1510 1509 1509 1508 1507 1506 1506 1505 1505 1504 1504 1504 1503
1498 1499 1499 1499 1499 1499 1499 1499 1499 1499 1500 1500 1500 1500 1501 1501 1502 1502 1502 1503 1503 1504 1505 1505 1505 1506 1506 1505 1505 1505 1505 1505 1505 1505 1505 1505 1506 1506 1507 1507 1508 1508 1508 1508 1508 1509 1509 1509 1509 1509 1509 1508 1508 1508 1508 1508 1508 1507 1506 1506 1505 1504 1504 1503 1503 1502 1502 1501 1501
1497 1497 1497 1497 1497 1497 1497 1497 1498 1498 1498 1498 1499 1499 1500 1500 1500 1501 1501 1501 1502 1502 1503 1503 1503 1503 1503 1502 1502 1502 1501 1502 1502 1502 1503 1504 1505 1505 1505 1506 1506 1506 1506 1506 1507 1507 1507 1507 1507 1507 1506 1506 1506 1506 1506 1506 1505 1505 1504 1504 1503 1502 1501 1501 1500 1500 1500 1499 1499
1495 1495 1495 1495 1495 1495 1495 1495 1495 1496 1496 1496 1497 1497 1498 1498 1499 1499 1500 1500 1500 1500 1500 1501 1501 1501 1500 1500 1500 1500 1500 1500 1500 1501 1502 1502 1503 1504 1504 1504 1504 1504 1505 1505 1505 1505 1505 1505 1505 1505 1505 1505 1505 1504 1504 1504 1503 1503 1502 1501 1501 1500 1499 1499 1498 1498 1498 1497 1497
1493 1493 1492 1492 1492 1492 1493 1493 1493 1494 1494 1495 1495 1495 1496 1496 1497 1497 1497 1498 1498 1498 1498 1499 1499 1499 1499 1499 1499 1498 1498 1498 1498 1499 1500 1500 1501 1502 1502 1502 1502 1503 1503 1503 1503 1503 1503 1503 1503 1503 1503 1503 1503 1502 1502 1502 1501 1500 1500 1499 1499 1498 1497 1497 1496 1496 1495 1495 1495
1491 1491 1490 1490 1490 1490 1490 1490 1491 1491 1492 1492 1493 1493 1494 1494 1495 1495 1495 1495 1495 1496 1496 1496 1496 1496 1496 1496 1497 1497 1497 1497 1497 1497 1497 1498 1499 1500 1500 1500 1501 1501 1501 1501 1501 1501 1501 1501 1501 1501 1501 1501 1500 1500 1500 1499 1499 1498 1498 1497 1496 1496 1495 1495 1494 1494 1493 1493 1493
1490 1490 1489 1489 1489 1488 1488 1489 1489 1489 1490 1490 1490 1491 1492 1492 1492 1493 1493 1493 1493 1494 1494 1494 1494 1495 1495 1495 1495 1495 1495 1495 1495 1495 1495 1495 1496 1497 1498 1498 1499 1499 1499 1499 1500 1500 1500 1499 1499 1499 1499 1498 1498 1498 1498 1497 1497 1496 1496 1495 1494 1494 1493 1492 1492 1492 1491 1491 1491
1489 1488 1488 1488 1487 1487 1487 1487 1487 1487 1488 1488 1488 1489 1489 1490 1490 1490 1491 1491 1491 1492 1492 1492 1493 1493 1493 1494 1494 1494 1494 1494 1494 1494 1494 1493 1493 1494 1495 1496 1496 1497 1497 1498 1498 1498 1497 1497 1497 1497 1496 1496 1496 1495 1495 1495 1495 1494 1494 1493 1492 1491 1491 1490 1490 1490 1489 1489 1489
1488 1487 1487 1486 1486 1486 1485 1485 1485 1485 1486 1486 1486 1487 1487 1488 1488 1488 1489 1489 1490 1490 1490 1490 1491 1491 1491 1492 1492 1492 1492 1492 1493 1493 1492 1492 1491 1491 1492 1493 1494 1495 1495 1495 1495 1495 1495 1495 1494 1494 1494 1494 1494 1493 1493 1493 1492 1492 1491 1490 1490 1489 1489 1488 1488 1487 1487 1487 1487
1487 1486 1486 1485 1485 1485 1484 1484 1484 1484 1485 1485 1485 1485 1486 1486 1486 1487 1487 1487 1488 1488 1488 1489 1489 1489 1489 1490 1490 1490 1490 1491 1491 1491 1491 1490 1489 1489 1489 1490 1491 1491 1492 1492 1492 1492 1492 1492 1492 1492 1492 1491 1491 1491 1491 1490 1490 1490 1489 1488 1488 1487 1486 1486 1486 1485 1485 1485 1485
1485 1485 1485 1484 1484 1483 1483 1483 1483 1483 1483 1483 1484 1484 1484 1485 1485 1485 1486 1486 1486 1486 1486 1487 1487 1487 1487 1487 1488 1488 1488 1489 1489 1489 1489 1488 1487 1487 1487 1487 1488 1489 1489 1490 1490 1490 1490 1490 1490 1490 1490 1489 1489 1489 1489 1488 1488 1487 1486 1486 1485 1485 1485 1484 1484 1484 1483 1483 1484
1484 1484 1483 1483 1482 1482 1481 1481 1481 1481 1481 1482 1482 1482 1483 1483 1484 1484 1484 1484 1485 1485 1485 1485 1485 1485 1485 1485 1486 1486 1486 1487 1487 1487 1486 1486 1485 1485 1485 1486 1486 1487 1487 1487 1488 1488 1488 1488 1488 1488 1487 1487 1487 1487 1486 1486 1485 1485 1484 1484 1483 1483 1482 1482 1482 1482 1481 1481 1482
1483 1482 1482 1481 1480 1480 1480 1480 1479 1479 1480 1480 1480 1480 1481 1481 1482 1482 1482 1483 1483 1483 1483 1483 1483 1483 1484 1484 1484 1484 1484 1485 1485 1484 1484 1484 1483 1483 1484 1484 1484 1485 1485 1485 1485 1485 1485 1485 1485 1485 1485 1485 1484 1484 1484 1483 1483 1482 1482 1481 1481 1481 1480 1480 1480 1480 1480 1480 1480
1481 1481 1480 1480 1479 1478 1478 1478 1477 1477 1477 1478 1478 1478 1479 1479 1480 1480 1480 1481 1481 1481 1481 1481 1481 1481 1482 1482 1482 1482 1482 1482 1482 1482 1482 1482 1481 1481 1482 1482 1482 1483 1483 1483 1483 1483 1483 1483 1483 1483 1483 1482 1482 1481 1481 1481 1480 1480 1480 1479 1479 1479 1478 1478 1478 1478 1478 1478 1478
1480 1479 1479 1478 1477 1477 1476 1476 1475 1475 1475 1475 1476 1476 1477 1477 1478 1478 1479 1479 1479 1479 1479 1479 1479 1480 1480 1480 1480 1480 1480 1480 1480 1480 1480 1480 1480 1480 1480 1480 1480 1480 1481 1481 1481 1481 1481 1480 1480 1480 1480 1480 1479 1479 1479 1479 1478 1478 1477 1477 1477 1476 1476 1476 1476 1476 1476 1476 1476
1478 1477 1476 1476 1475 1475 1474 1474 1474 1473 1473 1473 1474 1474 1475 1475 1476 1476 1476 1477 1477 1477 1477 1477 1477 1478 1478 1478 1478 1478 1478 1478 1478 1478 1478 1478 1478 1478 1478 1478 1478 1478 1479 1479 1479 1479 1478 1478 1478 1478 1478 1477 1477 1477 1477 1476 1476 1476 1475 1475 1475 1475 1474 1474 1474 1474 1474 1474 1474
1475 1475 1475 1474 1474 1473 1473 1472 1472 1471 1471 1471 1472 1472 1473 1473 1474 1474 1474 1475 1475 1475 1475 1475 1476 1476 1476 1476 1476 1476 1476 1476 1476 1476 1476 1476 1476 1476 1476 1476 1476 1476 1476 1476 1476 1476 1476 1476 1476 1476 1475 1475 1475 1475 1475 1474 1474 1474 1473 1473 1473 1472 1472 1472 1472 1472 1472 1472 1472
1473 1473 1473 1472 1472 1471 1471 1470 1470 1470 1470 1470 1470 1470 1470 1471 1471 1472 1472 1472 1473 1473 1473 1474 1474 1474 1474 1475 1475 1475 1475 1475 1474 1474 1474 1474 1474 1474 1474 1474 1474 1474 1474 1474 1474 1474 1474 1474 1474 1474 1473 1473 1473 1473 1472 1472 1472 1471 1471 1471 1470 1470 1470 1470 1470 1470 1470 1470 1470
1471 1471 1470 1470 1470 1470 1469 1469 1468 1468 1468 1468 1468 1468 1468 1469 1469 1470 1470 1470 1471 1471 1472 1472 1472 1472 1472 1473 1473 1473 1473 1472 1472 1472 1472 1472 1472 1472 1472 1472 1472 1472 1472 1472 1472 1472 1472 1472 1472 1471 1471 1471 1470 1470 1470 1470 1470 1469 1469 1469 1468 1468 1468 1468 1467 1467 1467 1468 1468
1469 1469 1469 1468 1468 1468 1467 1467 1466 1466 1466 1466 1466 1466 1466 1467 1467 1468 1468 1469 1469 1470 1470 1470 1470 1470 1470 1470 1470 1471 1471 1470 1470 1470 1470 1470 1470 1470 1470 1470 1470 1470 1470 1470 1470 1470 1470 1470 1470 1470 1469 1469 1469 1468 1468 1468 1468 1467 1467 1466 1466 1466 1466 1465 1465 1465 1465 1466 1466
1468 1467 1466 1466 1466 1465 1465 1465 1465 1464 1464 1464 1464 1464 1465 1465 1465 1466 1466 1467 1467 1467 1468 1468 1468 1468 1468 1468 1469 1469 1469 1469 1469 1469 1469 1469 1469 1469 1468 1468 1469 1469 1469 1469 1469 1468 1468 1468 1468 1468 1467 1467 1467 1467 1466 1466 1466 1465 1465 1465 1464 1464 1464 1464 1463 1464 1464 1464 1464
1466 1465 1465 1464 1464 1464 1463 1463 1463 1462 1462 1462 1462 1463 1463 1463 1463 1464 1464 1465 1465 1465 1465 1466 1466 1466 1466 1466 1466 1466 1466 1466 1466 1467 1467 1467 1467 1467 1467 1467 1467 1467 1467 1467 1467 1467 1467 1466 1466 1466 1466 1466 1465 1465 1465 1465 1464 1464 1463 1463 1462 1462 1462 1461 1462 1462 1462 1462 1462
1464 1463 1462 1462 1462 1461 1461 1461 1461 1460 1460 1460 1460 1460 1460 1461 1461 1461 1462 1462 1463 1463 1464 1464 1464 1464 1464 1464 1464 1464 1465 1465 1465 1465 1465 1465 1465 1465 1465 1465 1465 1465 1465 1465 1465 1465 1465 1465 1465 1465 1464 1464 1464 1464 1463 1463 1462 1462 1461 1461 1460 1460 1460 1460 1460 1460 1460 1460 1461
1462 1461 1460 1460 1460 1460 1460 1460 1459 1459 1459 1458 1458 1458 1459 1459 1459 1459 1460 1460 1461 1461 1461 1461 1461 1462 1462 1462 1462 1462 1462 1463 1463 1463 1463 1463 1463 1463 1463 1463 1463 1463 1463 1463 1463 1463 1463 1463 1463 1463 1463 1462 1462 1462 1461 1461 1460 1460 1460 1459 1459 1459 1459 1459 1459 1459 1459 1459 1460
1460 1459 1459 1458 1458 1457 1458 1458 1457 1457 1456 1456 1456 1456 1456 1457 1457 1457 1458 1458 1458 1459 1459 1459 1459 1460 1460 1460 1460 1460 1460 1460 1461 1461 1461 1461 1461 1462 1462 1462 1462 1462 1462 1461 1461 1461 1462 1462 1461 1461 1461 1461 1460 1460 1460 1459 1459 1458 1458 1458 1458 1458 1458 1458 1458 1458 1458 1458 1459
1459 1458 1457 1456 1455 1455 1455 1455 1455 1455 1455 1455 1454 1454 1455 1455 1455 1455 1455 1456 1456 1456 1457 1457 1457 1457 1458 1458 1458 1458 1458 1459 1459 1459 1459 1460 1460 1460 1460 1460 1460 1460 1460 1460 1460 1460 1460 1460 1460 1460 1460 1459 1459 1458 1458 1457 1457 1457 1457 1456 1456 1456 1456 1457 1457 1457 1457 1457 1458
1457 1456 1455 1454 1454 1453 1453 1453 1453 1453 1452 1452 1452 1452 1452 1453 1453 1453 1453 1454 1454 1454 1455 1455 1455 1455 1455 1455 1456 1456 1456 1456 1457 1457 1457 1457 1458 1458 1458 1458 1458 1458 1458 1458 1458 1458 1458 1458 1458 1458 1458 1457 1457 1457 1456 1456 1456 1455 1455 1455 1455 1455 1455 1456 1456 1456 1456 1456 1457
1455 1455 1454 1453 1452 1451 1451 1451 1450 1450 1450 1450 1450 1450 1450 1450 1451 1451 1451 1452 1452 1452 1452 1452 1453 1453 1453 1453 1453 1454 1454 1454 1455 1455 1455 1455 1455 1456 1456 1456 1456 1456 1456 1456 1456 1456 1457 1457 1457 1456 1456 1456 1456 1455 1455 1455 1455 1455 1455 1455 1455 1455 1455 1455 1455 1455 1455 1455 1456
1454 1453 1452 1451 1450 1450 1449 1449 1448 1448 1448 1448 1448 1448 1448 1449 1449 1449 1449 1450 1450 1450 1450 1450 1450 1450 1450 1451 1451 1451 1452 1452 1452 1452 1453 1453 1453 1454 1454 1455 1455 1455 1455 1455 1455 1455 1455 1455 1455 1455 1455 1455 1454 1454 1454 1454 1454 1454 1454 1454 1454 1454 1454 1454 1455 1455 1455 1455 1455
1452 1451 1450 1450 1449 1448 1447 1446 1446 1445 1445 1445 1446 1446 1446 1446 1447 1447 1447 1447 1447 1447 1448 1448 1448 1448 1449 1449 1449 1449 1450 1450 1450 1450 1450 1450 1451 1451 1452 1452 1453 1453 1453 1453 1453 1453 1453 1454 1454 1454 1454 1453 1453 1453 1452 1452 1452 1453 1453 1453 1453 1453 1454 1454 1454 1454 1454 1455 1455
1450 1449 1449 1448 1447 1446 1445 1445 1444 1444 1443 1444 1444 1444 1444 1444 1444 1445 1445 1445 1445 1445 1445 1445 1446 1446 1446 1447 1447 1447 1447 1447 1447 1447 1448 1448 1449 1449 1450 1450 1451 1451 1451 1451 1451 1451 1451 1452 1452 1452 1452 1452 1451 1451 1451 1451 1451 1451 1452 1452 1452 1453 1453 1453 1453 1454 1454 1454 1454
1448 1447 1446 1446 1445 1445 1444 1443 1442 1442 1442 1442 1442 1441 1442 1442 1442 1442 1442 1442 1443 1443 1443 1443 1443 1444 1444 1444 1444 1444 1444 1444 1444 1445 1445 1446 1446 1447 1447 1448 1449 1449 1449 1449 1449 1449 1450 1450 1450 1450 1450 1450 1450 1450 1450 1450 1450 1450 1451 1451 1452 1452 1452 1452 1453 1453 1453 1454 1454
1446 1445 1445 1444 1443 1443 1442 1441 1440 1440 1440 1440 1440 1439 1439 1440 1440 1440 1440 1440 1440 1440 1440 1441 1441 1441 1441 1441 1441 1441 1441 1441 1442 1442 1443 1444 1444 1445 1445 1446 1446 1447 1447 1447 1447 1447 1448 1449 1449 1449 1449 1449 1449 1449 1449 1449 1449 1450 1450 1450 1451 1451 1451 1452 1452 1452 1452 1453 1453
1444 1443 1442 1441 1441 1440 1440 1439 1439 1438 1438 1438 1437 1437 1437 1438 1438 1438 1438 1438 1438 1438 1438 1438 1438 1439 1439 1439 1439 1439 1439 1439 1439 1440 1440 1441 1442 1442 1443 1444 1444 1445 1445 1445 1445 1445 1446 1446 1447 1447 1447 1447 1447 1447 1447 1447 1448 1448 1449 1449 1450 1450 1450 1451 1451 1451 1451 1452 1452